| time (UTC) | temp C | wind direction | speed KPH | gust KPH | rain 1hr cm | rain 24hr cm | rain mn cm | humidity % | barometer mb |
| 20260510202028 | 26 | 102 | 1.6 | 4.8 | 0.00 | 0.03 | 0.03 | 41 | 1014.4 |
| 20260510201525 | 27 | 201 | 3.2 | 4.8 | 0.00 | 0.03 | 0.03 | 40 | 1014.7 |
| 20260510201022 | 27 | 131 | 1.6 | 4.8 | 0.00 | 0.03 | 0.03 | 40 | 1014.8 |
| 20260510200517 | 26 | 95 | 1.6 | 4.8 | 0.00 | 0.03 | 0.03 | 42 | 1014.7 |
| 20260510200015 | 26 | 172 | 4.8 | 9.7 | 0.00 | 0.03 | 0.03 | 41 | 1014.8 |
| 20260510195513 | 25 | 114 | 0.0 | 1.6 | 0.00 | 0.03 | 0.03 | 43 | 1014.8 |
| 20260510195008 | 25 | 204 | 1.6 | 3.2 | 0.00 | 0.03 | 0.03 | 43 | 1015.0 |
| 20260510194504 | 25 | 128 | 0.0 | 4.8 | 0.00 | 0.03 | 0.03 | 46 | 1014.7 |
| 20260510194001 | 25 | 232 | 1.6 | 3.2 | 0.00 | 0.03 | 0.03 | 43 | 1015.0 |
| 20260510193500 | 25 | 115 | 0.0 | 1.6 | 0.00 | 0.03 | 0.03 | 44 | 1015.0 |
| 20260510192956 | 25 | 9 | 4.8 | 9.7 | 0.00 | 0.03 | 0.03 | 43 | 1014.9 |
| 20260510192451 | 25 | 308 | 1.6 | 3.2 | 0.00 | 0.03 | 0.03 | 45 | 1015.0 |
| 20260510191947 | 25 | 130 | 1.6 | 4.8 | 0.00 | 0.03 | 0.03 | 45 | 1015.2 |
| 20260510191444 | 25 | 123 | 3.2 | 6.4 | 0.00 | 0.03 | 0.03 | 44 | 1015.2 |
| 20260510190941 | 25 | 219 | 3.2 | 3.2 | 0.00 | 0.03 | 0.03 | 45 | 1015.2 |
| 20260510190438 | 25 | 248 | 3.2 | 9.7 | 0.00 | 0.03 | 0.03 | 45 | 1015.2 |
| 20260510185935 | 25 | 81 | 0.0 | 3.2 | 0.00 | 0.03 | 0.03 | 45 | 1015.4 |
| 20260510185432 | 25 | 325 | 6.4 | 11.3 | 0.00 | 0.03 | 0.03 | 45 | 1015.3 |
| 20260510184929 | 24 | 320 | 3.2 | 4.8 | 0.00 | 0.03 | 0.03 | 46 | 1015.3 |
| 20260510184427 | 24 | 89 | 0.0 | 4.8 | 0.00 | 0.03 | 0.03 | 47 | 1015.2 |
| 20260510183926 | 25 | 317 | 9.7 | 14.5 | 0.00 | 0.03 | 0.03 | 44 | 1015.1 |
| 20260510183423 | 25 | 32 | 1.6 | 3.2 | 0.00 | 0.03 | 0.03 | 43 | 1015.2 |
| 20260510182918 | 25 | 226 | 1.6 | 6.4 | 0.00 | 0.03 | 0.03 | 43 | 1015.0 |
| 20260510182415 | 25 | 129 | 4.8 | 20.9 | 0.00 | 0.03 | 0.03 | 42 | 1015.2 |
| 20260510181910 | 26 | 235 | 3.2 | 11.3 | 0.00 | 0.03 | 0.03 | 41 | 1015.0 |
| 20260510181408 | 26 | 220 | 4.8 | 6.4 | 0.00 | 0.03 | 0.03 | 41 | 1015.2 |
| 20260510180904 | 26 | 126 | 3.2 | 4.8 | 0.00 | 0.03 | 0.03 | 43 | 1015.1 |
| 20260510180401 | 26 | 153 | 1.6 | 9.7 | 0.00 | 0.03 | 0.03 | 40 | 1014.8 |
| 20260510175858 | 26 | 226 | 1.6 | 9.7 | 0.00 | 0.03 | 0.03 | 39 | 1015.3 |
| 20260510175354 | 26 | 215 | 3.2 | 4.8 | 0.00 | 0.03 | 0.03 | 43 | 1015.2 |
| 20260510174850 | 26 | 118 | 0.0 | 4.8 | 0.00 | 0.03 | 0.03 | 44 | 1015.1 |
| 20260510174348 | 25 | 268 | 1.6 | 4.8 | 0.00 | 0.03 | 0.03 | 46 | 1015.0 |
| 20260510173844 | 26 | 77 | 3.2 | 12.9 | 0.00 | 0.03 | 0.03 | 43 | 1015.1 |
| 20260510173340 | 25 | 204 | 3.2 | 9.7 | 0.00 | 0.03 | 0.03 | 43 | 1015.2 |
| 20260510172836 | 26 | 218 | 8.0 | 9.7 | 0.00 | 0.03 | 0.03 | 42 | 1015.2 |
| 20260510172332 | 25 | 230 | 1.6 | 6.4 | 0.00 | 0.03 | 0.03 | 45 | 1015.3 |
| 20260510171829 | 25 | 90 | 6.4 | 6.4 | 0.00 | 0.03 | 0.03 | 46 | 1015.4 |
| 20260510171326 | 25 | 217 | 3.2 | 9.7 | 0.00 | 0.03 | 0.03 | 46 | 1015.3 |
| 20260510170823 | 25 | 109 | 0.0 | 4.8 | 0.00 | 0.03 | 0.03 | 48 | 1015.2 |
| 20260510170319 | 24 | 223 | 1.6 | 9.7 | 0.00 | 0.03 | 0.03 | 51 | 1015.4 |
| 20260510165815 | 23 | 108 | 1.6 | 6.4 | 0.00 | 0.03 | 0.03 | 51 | 1015.5 |
| 20260510165312 | 23 | 198 | 3.2 | 6.4 | 0.00 | 0.03 | 0.03 | 52 | 1015.6 |
| 20260510164809 | 23 | 98 | 1.6 | 6.4 | 0.00 | 0.03 | 0.03 | 51 | 1015.5 |
| 20260510164307 | 23 | 107 | 0.0 | 4.8 | 0.00 | 0.03 | 0.03 | 54 | 1015.7 |
| 20260510163806 | 23 | 22 | 3.2 | 4.8 | 0.00 | 0.03 | 0.03 | 53 | 1015.6 |
| 20260510163302 | 23 | 254 | 9.7 | 14.5 | 0.00 | 0.03 | 0.03 | 51 | 1015.6 |
| 20260510162802 | 23 | 355 | 1.6 | 6.4 | 0.00 | 0.03 | 0.03 | 52 | 1015.4 |
| 20260510162259 | 23 | 104 | 1.6 | 11.3 | 0.00 | 0.03 | 0.03 | 54 | 1015.5 |
| 20260510161755 | 22 | 103 | 1.6 | 4.8 | 0.00 | 0.03 | 0.03 | 57 | 1015.5 |
| 20260510161251 | 22 | 77 | 3.2 | 4.8 | 0.00 | 0.03 | 0.03 | 56 | 1015.7 |
| 20260510160748 | 22 | 19 | 3.2 | 6.4 | 0.00 | 0.03 | 0.03 | 54 | 1015.7 |
| 20260510160244 | 22 | 309 | 8.0 | 12.9 | 0.00 | 0.03 | 0.03 | 55 | 1015.7 |
| 20260510155740 | 22 | 256 | 4.8 | 6.4 | 0.00 | 0.03 | 0.03 | 56 | 1015.7 |
| 20260510155236 | 22 | 296 | 6.4 | 9.7 | 0.00 | 0.03 | 0.03 | 56 | 1015.7 |
| 20260510154732 | 21 | 97 | 0.0 | 4.8 | 0.00 | 0.03 | 0.03 | 60 | 1015.8 |
| 20260510154228 | 21 | 177 | 1.6 | 4.8 | 0.00 | 0.03 | 0.03 | 61 | 1015.6 |
| 20260510153723 | 21 | 66 | 1.6 | 4.8 | 0.00 | 0.03 | 0.03 | 65 | 1015.7 |
| 20260510153219 | 21 | 22 | 4.8 | 11.3 | 0.00 | 0.03 | 0.03 | 61 | 1015.8 |
| 20260510152716 | 20 | 322 | 3.2 | 4.8 | 0.00 | 0.03 | 0.03 | 64 | 1016.1 |
| 20260510152212 | 20 | 238 | 3.2 | 6.4 | 0.00 | 0.03 | 0.03 | 63 | 1016.1 |
| 20260510151709 | 20 | 133 | 4.8 | 6.4 | 0.00 | 0.03 | 0.03 | 63 | 1016.1 |
| 20260510151208 | 20 | 102 | 0.0 | 1.6 | 0.00 | 0.03 | 0.03 | 67 | 1016.3 |
| 20260510150703 | 20 | 195 | 1.6 | 4.8 | 0.00 | 0.03 | 0.03 | 66 | 1016.2 |
| 20260510150158 | 20 | 338 | 3.2 | 4.8 | 0.00 | 0.03 | 0.03 | 65 | 1016.3 |
| 20260510145655 | 19 | 324 | 4.8 | 4.8 | 0.00 | 0.03 | 0.03 | 68 | 1016.2 |
| 20260510145151 | 19 | 201 | 3.2 | 3.2 | 0.00 | 0.03 | 0.03 | 69 | 1016.1 |
| 20260510144647 | 19 | 106 | 0.0 | 1.6 | 0.00 | 0.03 | 0.03 | 71 | 1016.1 |
| 20260510144144 | 18 | 153 | 4.8 | 4.8 | 0.00 | 0.03 | 0.03 | 71 | 1015.7 |
| 20260510143639 | 18 | 244 | 1.6 | 3.2 | 0.00 | 0.03 | 0.03 | 73 | 1015.8 |
| 20260510143136 | 18 | 114 | 1.6 | 3.2 | 0.00 | 0.03 | 0.03 | 75 | 1016.2 |
| 20260510142632 | 17 | 17 | 0.0 | 1.6 | 0.00 | 0.03 | 0.03 | 74 | 1016.1 |
| 20260510142129 | 17 | 98 | 0.0 | 3.2 | 0.00 | 0.03 | 0.03 | 75 | 1016.3 |
| 20260510141626 | 17 | 102 | 0.0 | 1.6 | 0.00 | 0.03 | 0.03 | 77 | 1016.2 |
| 20260510141124 | 16 | 53 | 1.6 | 3.2 | 0.00 | 0.03 | 0.03 | 77 | 1016.2 |
| 20260510140620 | 16 | 68 | 3.2 | 3.2 | 0.00 | 0.03 | 0.03 | 78 | 1016.2 |
| 20260510140120 | 16 | 55 | 1.6 | 1.6 | 0.00 | 0.03 | 0.03 | 80 | 1016.3 |
| 20260510135615 | 16 | 73 | 1.6 | 3.2 | 0.00 | 0.03 | 0.03 | 81 | 1016.1 |
| 20260510135112 | 15 | 104 | 0.0 | 3.2 | 0.00 | 0.03 | 0.03 | 85 | 1015.9 |
| 20260510134609 | 15 | 202 | 1.6 | 3.2 | 0.00 | 0.03 | 0.03 | 83 | 1016.2 |
| 20260510134106 | 14 | 102 | 0.0 | 1.6 | 0.00 | 0.03 | 0.03 | 87 | 1015.6 |
| 20260510133602 | 14 | 83 | 0.0 | 1.6 | 0.00 | 0.03 | 0.03 | 90 | 1015.8 |
| 20260510133057 | 14 | 68 | 1.6 | 3.2 | 0.00 | 0.03 | 0.03 | 92 | 1015.8 |
| 20260510132554 | 13 | 92 | 0.0 | 1.6 | 0.00 | 0.03 | 0.03 | 95 | 1016.3 |
| 20260510132051 | 13 | 95 | 0.0 | 1.6 | 0.00 | 0.03 | 0.03 | 95 | 1016.2 |
| 20260510131549 | 13 | 75 | 0.0 | 1.6 | 0.00 | 0.03 | 0.03 | 95 | 1016.1 |
| 20260510131046 | 12 | 112 | 0.0 | 0.0 | 0.00 | 0.03 | 0.03 | 96 | 1016.4 |
| 20260510130542 | 12 | 323 | 3.2 | 4.8 | 0.00 | 0.03 | 0.03 | 96 | 1016.4 |
| 20260510130040 | 12 | 322 | 0.0 | 3.2 | 0.00 | 0.03 | 0.03 | 97 | 1016.2 |
| 20260510125536 | 12 | 119 | 1.6 | 3.2 | 0.00 | 0.03 | 0.03 | 97 | 1016.1 |
| 20260510125032 | 12 | 69 | 0.0 | 1.6 | 0.00 | 0.03 | 0.03 | 97 | 1015.8 |
| 20260510124529 | 12 | 112 | 0.0 | 1.6 | 0.00 | 0.03 | 0.03 | 97 | 1015.8 |
| 20260510124026 | 12 | 110 | 0.0 | 1.6 | 0.00 | 0.03 | 0.03 | 97 | 1015.8 |
| 20260510123521 | 12 | 104 | 0.0 | 0.0 | 0.00 | 0.03 | 0.03 | 97 | 1015.5 |
| 20260510123018 | 12 | 317 | 3.2 | 3.2 | 0.00 | 0.03 | 0.03 | 97 | 1015.6 |
| 20260510122513 | 11 | 65 | 1.6 | 3.2 | 0.00 | 0.03 | 0.03 | 97 | 1015.6 |
| 20260510122010 | 11 | 86 | 0.0 | 1.6 | 0.00 | 0.03 | 0.03 | 97 | 1015.7 |
| 20260510121507 | 11 | 331 | 1.6 | 3.2 | 0.00 | 0.03 | 0.03 | 97 | 1015.9 |
| 20260510121005 | 11 | 78 | 0.0 | 1.6 | 0.00 | 0.03 | 0.03 | 97 | 1015.5 |
| 20260510120502 | 11 | 76 | 0.0 | 1.6 | 0.00 | 0.03 | 0.03 | 97 | 1015.7 |
| 20260510115957 | 11 | 81 | 1.6 | 1.6 | 0.00 | 0.03 | 0.03 | 97 | 1015.3 |
| 20260510115455 | 11 | 89 | 0.0 | 1.6 | 0.00 | 0.03 | 0.03 | 97 | 1015.4 |
| 20260510114950 | 11 | 82 | 0.0 | 1.6 | 0.00 | 0.03 | 0.03 | 98 | 1015.5 |
| 20260510114447 | 11 | 85 | 0.0 | 0.0 | 0.00 | 0.03 | 0.03 | 98 | 1015.4 |
| 20260510113943 | 11 | 97 | 0.0 | 1.6 | 0.00 | 0.03 | 0.03 | 98 | 1015.5 |
| 20260510113438 | 11 | 114 | 1.6 | 3.2 | 0.00 | 0.03 | 0.03 | 98 | 1015.4 |
| 20260510112936 | 11 | 74 | 0.0 | 1.6 | 0.00 | 0.03 | 0.03 | 98 | 1015.2 |
| 20260510112433 | 11 | 57 | 1.6 | 3.2 | 0.00 | 0.03 | 0.03 | 98 | 1015.1 |
| 20260510111929 | 11 | 61 | 0.0 | 1.6 | 0.00 | 0.03 | 0.03 | 98 | 1014.8 |
| 20260510111425 | 11 | 44 | 1.6 | 4.8 | 0.00 | 0.03 | 0.03 | 98 | 1015.0 |
| 20260510110921 | 10 | 59 | 0.0 | 4.8 | 0.00 | 0.03 | 0.03 | 98 | 1014.9 |
| 20260510110418 | 10 | 60 | 0.0 | 3.2 | 0.00 | 0.03 | 0.03 | 98 | 1014.8 |
| 20260510105914 | 10 | 65 | 0.0 | 1.6 | 0.00 | 0.03 | 0.03 | 98 | 1014.9 |
| 20260510105415 | 10 | 86 | 0.0 | 1.6 | 0.00 | 0.03 | 0.03 | 98 | 1014.9 |
| 20260510104910 | 10 | 74 | 0.0 | 3.2 | 0.00 | 0.03 | 0.03 | 98 | 1014.9 |
| 20260510104407 | 10 | 22 | 1.6 | 3.2 | 0.00 | 0.03 | 0.03 | 98 | 1014.6 |
| 20260510103904 | 10 | 26 | 1.6 | 1.6 | 0.00 | 0.03 | 0.03 | 98 | 1014.5 |
| 20260510103401 | 10 | 80 | 0.0 | 1.6 | 0.00 | 0.03 | 0.03 | 98 | 1014.4 |
| 20260510102856 | 10 | 100 | 1.6 | 1.6 | 0.00 | 0.03 | 0.03 | 98 | 1014.3 |
| 20260510102353 | 10 | 84 | 0.0 | 0.0 | 0.00 | 0.03 | 0.03 | 98 | 1014.5 |
| 20260510101850 | 10 | 63 | 0.0 | 3.2 | 0.00 | 0.03 | 0.03 | 98 | 1014.5 |
| 20260510101348 | 10 | 55 | 1.6 | 3.2 | 0.00 | 0.03 | 0.03 | 98 | 1014.5 |
| 20260510100844 | 10 | 75 | 0.0 | 3.2 | 0.00 | 0.03 | 0.03 | 98 | 1014.7 |
| 20260510100341 | 10 | 72 | 0.0 | 1.6 | 0.00 | 0.03 | 0.03 | 98 | 1014.7 |
| 20260510095838 | 10 | 85 | 1.6 | 1.6 | 0.00 | 0.03 | 0.03 | 98 | 1014.6 |
| 20260510095333 | 10 | 55 | 1.6 | 3.2 | 0.00 | 0.03 | 0.03 | 98 | 1014.5 |
| 20260510094832 | 10 | 352 | 6.4 | 9.7 | 0.00 | 0.03 | 0.03 | 98 | 1014.5 |
| 20260510094327 | 10 | 30 | 3.2 | 4.8 | 0.00 | 0.03 | 0.03 | 98 | 1014.4 |
| 20260510093824 | 10 | 53 | 1.6 | 3.2 | 0.00 | 0.03 | 0.03 | 98 | 1014.2 |
| 20260510093320 | 10 | 70 | 3.2 | 4.8 | 0.00 | 0.03 | 0.03 | 98 | 1014.6 |
| 20260510092816 | 10 | 73 | 1.6 | 9.7 | 0.00 | 0.03 | 0.03 | 97 | 1014.0 |
| 20260510092312 | 10 | 340 | 9.7 | 12.9 | 0.00 | 0.03 | 0.03 | 97 | 1014.7 |
| 20260510091808 | 10 | 59 | 1.6 | 4.8 | 0.13 | 0.03 | 0.03 | 97 | 1014.4 |
| 20260510091306 | 10 | 85 | 0.0 | 9.7 | 0.13 | 0.03 | 0.03 | 97 | 1014.0 |
| 20260510090802 | 10 | 38 | 3.2 | 6.4 | 0.00 | 0.00 | 0.00 | 98 | 1014.0 |
| 20260510090259 | 10 | 52 | 3.2 | 4.8 | 0.00 | 0.00 | 0.00 | 98 | 1014.1 |
| 20260510085755 | 10 | 76 | 1.6 | 1.6 | 0.00 | 0.00 | 0.00 | 98 | 1013.7 |
| 20260510085249 | 10 | 70 | 1.6 | 3.2 | 0.00 | 0.00 | 0.00 | 98 | 1013.9 |
| 20260510084745 | 10 | 78 | 0.0 | 1.6 | 0.00 | 0.00 | 0.00 | 98 | 1013.7 |
| 20260510084242 | 10 | 82 | 0.0 | 0.0 | 0.00 | 0.00 | 0.00 | 97 | 1013.6 |
| 20260510083739 | 10 | 81 | 0.0 | 1.6 | 0.00 | 0.00 | 0.00 | 97 | 1013.7 |
| 20260510083236 | 10 | 72 | 1.6 | 1.6 | 0.00 | 0.00 | 0.00 | 97 | 1013.8 |
| 20260510082731 | 10 | 93 | 0.0 | 1.6 | 0.00 | 0.00 | 0.00 | 98 | 1013.9 |
| 20260510082229 | 10 | 88 | 0.0 | 0.0 | 0.00 | 0.00 | 0.00 | 97 | 1013.6 |
| 20260510081728 | 10 | 77 | 0.0 | 1.6 | 0.00 | 0.00 | 0.00 | 97 | 1013.5 |
| 20260510081224 | 10 | 77 | 0.0 | 1.6 | 0.00 | 0.00 | 0.00 | 97 | 1013.6 |
| 20260510080719 | 10 | 42 | 1.6 | 1.6 | 0.00 | 0.00 | 0.00 | 97 | 1013.7 |
| 20260510080215 | 10 | 66 | 0.0 | 3.2 | 0.00 | 0.00 | 0.00 | 97 | 1013.8 |
| 20260510075712 | 10 | 81 | 0.0 | 1.6 | 0.00 | 0.00 | 0.00 | 97 | 1013.7 |
| 20260510075209 | 10 | 55 | 1.6 | 3.2 | 0.00 | 0.00 | 0.00 | 98 | 1013.6 |
| 20260510074706 | 10 | 78 | 0.0 | 3.2 | 0.00 | 0.00 | 0.00 | 98 | 1013.6 |
| 20260510074202 | 10 | 95 | 0.0 | 1.6 | 0.00 | 0.00 | 0.00 | 98 | 1013.4 |
| 20260510073659 | 10 | 61 | 1.6 | 1.6 | 0.00 | 0.00 | 0.00 | 98 | 1013.5 |
| 20260510073155 | 8 | 57 | 1.6 | 3.2 | 0.00 | 0.00 | 0.00 | 98 | 1013.3 |
| 20260510072651 | 8 | 91 | 0.0 | 0.0 | 0.00 | 0.00 | 0.00 | 97 | 1013.3 |
| 20260510072148 | 8 | 92 | 0.0 | 0.0 | 0.00 | 0.00 | 0.00 | 97 | 1013.3 |
| 20260510071644 | 8 | 91 | 0.0 | 0.0 | 0.00 | 0.00 | 0.00 | 97 | 1013.1 |
| 20260510071141 | 7 | 96 | 0.0 | 0.0 | 0.00 | 0.00 | 0.00 | 97 | 1013.0 |
| 20260510070639 | 7 | 96 | 0.0 | 0.0 | 0.00 | 0.00 | 0.00 | 97 | 1013.0 |
| 20260510070136 | 8 | 96 | 0.0 | 0.0 | 0.00 | 0.00 | 0.00 | 97 | 1013.0 |
| 20260510065631 | 8 | 96 | 0.0 | 0.0 | 0.00 | 0.00 | 0.00 | 97 | 1013.2 |
| 20260510065128 | 8 | 95 | 0.0 | 0.0 | 0.00 | 0.00 | 0.00 | 97 | 1013.1 |
| 20260510064624 | 8 | 95 | 0.0 | 0.0 | 0.00 | 0.00 | 0.00 | 97 | 1013.4 |
| 20260510064121 | 8 | 95 | 0.0 | 0.0 | 0.00 | 0.00 | 0.00 | 97 | 1013.1 |
| 20260510063618 | 8 | 95 | 0.0 | 0.0 | 0.00 | 0.00 | 0.00 | 97 | 1013.2 |
| 20260510063115 | 8 | 95 | 0.0 | 0.0 | 0.00 | 0.00 | 0.00 | 97 | 1013.0 |
| 20260510062610 | 8 | 95 | 0.0 | 0.0 | 0.00 | 0.00 | 0.00 | 97 | 1012.9 |
| 20260510062106 | 8 | 95 | 0.0 | 0.0 | 0.00 | 0.00 | 0.00 | 97 | 1013.3 |
| 20260510061603 | 8 | 95 | 0.0 | 0.0 | 0.00 | 0.00 | 0.00 | 97 | 1013.2 |
| 20260510061100 | 8 | 95 | 0.0 | 0.0 | 0.00 | 0.00 | 0.00 | 97 | 1013.1 |
| 20260510060555 | 8 | 95 | 0.0 | 0.0 | 0.00 | 0.00 | 0.00 | 97 | 1013.0 |
| 20260510060053 | 8 | 95 | 0.0 | 0.0 | 0.00 | 0.00 | 0.00 | 97 | 1013.2 |
| 20260510055548 | 8 | 95 | 0.0 | 0.0 | 0.00 | 0.00 | 0.00 | 97 | 1013.3 |
| 20260510055047 | 8 | 95 | 0.0 | 0.0 | 0.00 | 0.00 | 0.00 | 97 | 1013.1 |
| 20260510054542 | 8 | 94 | 0.0 | 0.0 | 0.00 | 0.00 | 0.00 | 97 | 1013.4 |
| 20260510054037 | 8 | 95 | 0.0 | 0.0 | 0.00 | 0.00 | 0.00 | 97 | 1013.4 |
| 20260510053532 | 8 | 95 | 0.0 | 0.0 | 0.00 | 0.00 | 0.00 | 97 | 1013.4 |
| 20260510053029 | 8 | 95 | 0.0 | 0.0 | 0.00 | 0.00 | 0.00 | 97 | 1013.5 |
| 20260510052525 | 8 | 95 | 0.0 | 0.0 | 0.00 | 0.00 | 0.00 | 97 | 1013.4 |
| 20260510052021 | 8 | 95 | 0.0 | 0.0 | 0.00 | 0.00 | 0.00 | 97 | 1013.6 |
| 20260510051517 | 9 | 95 | 0.0 | 0.0 | 0.00 | 0.00 | 0.00 | 97 | 1013.4 |
| 20260510051014 | 9 | 95 | 0.0 | 0.0 | 0.00 | 0.00 | 0.00 | 97 | 1013.7 |
| 20260510050511 | 9 | 95 | 0.0 | 0.0 | 0.00 | 0.00 | 0.00 | 97 | 1013.5 |
| 20260510050008 | 8 | 94 | 0.0 | 0.0 | 0.00 | 0.00 | 0.00 | 97 | 1013.8 |
| 20260510045505 | 9 | 94 | 0.0 | 0.0 | 0.00 | 0.00 | 0.00 | 97 | 1013.6 |
| 20260510045001 | 9 | 94 | 0.0 | 0.0 | 0.00 | 0.00 | 0.00 | 97 | 1013.6 |
| 20260510044458 | 8 | 94 | 0.0 | 0.0 | 0.00 | 0.00 | 0.00 | 96 | 1013.7 |
| 20260510043956 | 9 | 94 | 0.0 | 0.0 | 0.00 | 0.00 | 0.00 | 96 | 1013.8 |
| 20260510043451 | 9 | 94 | 0.0 | 0.0 | 0.00 | 0.00 | 0.00 | 96 | 1013.7 |
| 20260510042949 | 9 | 94 | 0.0 | 0.0 | 0.00 | 0.00 | 0.00 | 96 | 1013.8 |
| 20260510042445 | 8 | 94 | 0.0 | 0.0 | 0.00 | 0.00 | 0.00 | 96 | 1013.9 |
| 20260510041941 | 9 | 93 | 0.0 | 0.0 | 0.00 | 0.00 | 0.00 | 96 | 1013.8 |
| 20260510041438 | 9 | 93 | 0.0 | 0.0 | 0.00 | 0.00 | 0.00 | 96 | 1013.9 |
| 20260510040936 | 9 | 87 | 0.0 | 0.0 | 0.00 | 0.00 | 0.00 | 96 | 1013.9 |
| 20260510040432 | 9 | 104 | 0.0 | 0.0 | 0.00 | 0.00 | 0.00 | 96 | 1013.8 |
| 20260510035928 | 9 | 107 | 0.0 | 0.0 | 0.00 | 0.03 | 0.03 | 96 | 1014.0 |
| 20260510035425 | 10 | 107 | 0.0 | 0.0 | 0.00 | 0.03 | 0.03 | 96 | 1013.8 |
| 20260510034925 | 10 | 107 | 0.0 | 0.0 | 0.00 | 0.03 | 0.03 | 96 | 1013.8 |
| 20260510034424 | 10 | 108 | 0.0 | 0.0 | 0.00 | 0.03 | 0.03 | 96 | 1013.8 |
| 20260510033919 | 9 | 96 | 0.0 | 0.0 | 0.00 | 0.03 | 0.03 | 96 | 1013.4 |
| 20260510033416 | 10 | 96 | 0.0 | 0.0 | 0.00 | 0.03 | 0.03 | 96 | 1013.6 |
| 20260510032913 | 10 | 96 | 0.0 | 0.0 | 0.00 | 0.03 | 0.03 | 96 | 1013.6 |
| 20260510032409 | 10 | 96 | 0.0 | 0.0 | 0.00 | 0.03 | 0.03 | 96 | 1013.4 |
| 20260510031905 | 10 | 96 | 0.0 | 0.0 | 0.00 | 0.03 | 0.03 | 96 | 1013.4 |
| 20260510031401 | 10 | 96 | 0.0 | 0.0 | 0.00 | 0.03 | 0.03 | 96 | 1013.4 |
| 20260510030900 | 10 | 96 | 0.0 | 0.0 | 0.00 | 0.03 | 0.03 | 96 | 1013.2 |
| 20260510030357 | 10 | 96 | 0.0 | 0.0 | 0.00 | 0.03 | 0.03 | 96 | 1013.4 |
| 20260510025855 | 10 | 96 | 0.0 | 0.0 | 0.00 | 0.03 | 0.03 | 96 | 1013.3 |
| 20260510025352 | 10 | 96 | 0.0 | 0.0 | 0.00 | 0.03 | 0.03 | 96 | 1013.3 |
| 20260510024849 | 10 | 96 | 0.0 | 0.0 | 0.00 | 0.03 | 0.03 | 95 | 1013.4 |
| 20260510024346 | 10 | 96 | 0.0 | 0.0 | 0.00 | 0.03 | 0.03 | 95 | 1013.4 |
| 20260510023842 | 10 | 96 | 0.0 | 0.0 | 0.00 | 0.03 | 0.03 | 95 | 1013.2 |
| 20260510023338 | 10 | 96 | 0.0 | 0.0 | 0.00 | 0.03 | 0.03 | 95 | 1013.5 |
| 20260510022836 | 10 | 96 | 0.0 | 0.0 | 0.00 | 0.03 | 0.03 | 95 | 1013.3 |
| 20260510022335 | 10 | 97 | 0.0 | 0.0 | 0.00 | 0.03 | 0.03 | 95 | 1013.5 |
| 20260510021834 | 10 | 97 | 0.0 | 0.0 | 0.00 | 0.03 | 0.03 | 95 | 1013.4 |
| 20260510021333 | 10 | 97 | 0.0 | 0.0 | 0.00 | 0.03 | 0.03 | 95 | 1013.3 |
| 20260510020828 | 10 | 97 | 0.0 | 0.0 | 0.00 | 0.03 | 0.03 | 95 | 1013.0 |
| 20260510020328 | 10 | 97 | 0.0 | 0.0 | 0.00 | 0.03 | 0.03 | 95 | 1013.1 |
| 20260510015824 | 10 | 97 | 0.0 | 0.0 | 0.00 | 0.03 | 0.03 | 95 | 1013.2 |
| 20260510015321 | 11 | 97 | 0.0 | 0.0 | 0.00 | 0.03 | 0.03 | 95 | 1013.1 |
| 20260510014816 | 11 | 97 | 0.0 | 0.0 | 0.00 | 0.03 | 0.03 | 95 | 1013.2 |
| 20260510014313 | 10 | 96 | 0.0 | 0.0 | 0.00 | 0.03 | 0.03 | 94 | 1013.1 |
| 20260510013809 | 11 | 96 | 0.0 | 0.0 | 0.00 | 0.03 | 0.03 | 94 | 1013.1 |
| 20260510013306 | 11 | 96 | 0.0 | 0.0 | 0.00 | 0.03 | 0.03 | 94 | 1013.3 |
| 20260510012801 | 11 | 94 | 0.0 | 0.0 | 0.00 | 0.03 | 0.03 | 94 | 1013.1 |
| 20260510012301 | 11 | 97 | 0.0 | 0.0 | 0.00 | 0.03 | 0.03 | 93 | 1013.3 |
| 20260510011800 | 11 | 97 | 0.0 | 0.0 | 0.00 | 0.03 | 0.03 | 93 | 1013.1 |
| 20260510011256 | 11 | 97 | 0.0 | 0.0 | 0.00 | 0.03 | 0.03 | 94 | 1013.2 |
| 20260510010753 | 11 | 95 | 0.0 | 0.0 | 0.00 | 0.03 | 0.03 | 93 | 1013.0 |
| 20260510010250 | 11 | 95 | 0.0 | 0.0 | 0.00 | 0.03 | 0.03 | 93 | 1013.1 |
| 20260510005747 | 11 | 96 | 0.0 | 0.0 | 0.00 | 0.03 | 0.03 | 93 | 1012.9 |
| 20260510005243 | 11 | 97 | 0.0 | 0.0 | 0.00 | 0.03 | 0.03 | 92 | 1012.7 |
| 20260510004741 | 12 | 97 | 0.0 | 0.0 | 0.00 | 0.03 | 0.03 | 92 | 1012.9 |
| 20260510004239 | 12 | 97 | 0.0 | 0.0 | 0.00 | 0.03 | 0.03 | 92 | 1012.9 |
| 20260510003736 | 12 | 97 | 0.0 | 0.0 | 0.00 | 0.03 | 0.03 | 91 | 1012.9 |
| 20260510003232 | 12 | 97 | 0.0 | 0.0 | 0.00 | 0.03 | 0.03 | 91 | 1013.0 |
| 20260510002731 | 12 | 97 | 0.0 | 0.0 | 0.00 | 0.03 | 0.03 | 91 | 1013.1 |
| 20260510002229 | 12 | 90 | 0.0 | 0.0 | 0.00 | 0.03 | 0.03 | 90 | 1013.0 |
| 20260510001725 | 12 | 90 | 0.0 | 0.0 | 0.00 | 0.03 | 0.03 | 89 | 1013.0 |
| 20260510001224 | 13 | 104 | 0.0 | 0.0 | 0.00 | 0.03 | 0.03 | 88 | 1012.9 |
| 20260510000719 | 13 | 104 | 0.0 | 0.0 | 0.00 | 0.03 | 0.03 | 88 | 1012.9 |
| 20260510000218 | 13 | 105 | 0.0 | 1.6 | 0.00 | 0.03 | 0.03 | 87 | 1012.8 |
| 20260509235714 | 13 | 87 | 0.0 | 0.0 | 0.00 | 0.03 | 0.03 | 85 | 1012.7 |
| 20260509235210 | 13 | 85 | 0.0 | 0.0 | 0.00 | 0.03 | 0.03 | 84 | 1012.9 |
| 20260509234706 | 14 | 86 | 0.0 | 0.0 | 0.00 | 0.03 | 0.03 | 84 | 1012.8 |
| 20260509234203 | 14 | 80 | 0.0 | 1.6 | 0.00 | 0.03 | 0.03 | 82 | 1012.8 |
| 20260509233701 | 14 | 98 | 0.0 | 1.6 | 0.00 | 0.03 | 0.03 | 82 | 1012.7 |
| 20260509233159 | 15 | 84 | 0.0 | 1.6 | 0.00 | 0.03 | 0.03 | 81 | 1012.7 |
| 20260509232655 | 15 | 95 | 1.6 | 3.2 | 0.00 | 0.03 | 0.03 | 81 | 1012.5 |
| 20260509232151 | 15 | 72 | 3.2 | 3.2 | 0.00 | 0.03 | 0.03 | 81 | 1012.5 |
| 20260509231648 | 15 | 51 | 1.6 | 3.2 | 0.00 | 0.03 | 0.03 | 82 | 1012.5 |
| 20260509231146 | 15 | 59 | 1.6 | 6.4 | 0.00 | 0.03 | 0.03 | 82 | 1012.3 |
| 20260509230643 | 15 | 88 | 0.0 | 6.4 | 0.00 | 0.03 | 0.03 | 83 | 1012.3 |
| 20260509230140 | 15 | 103 | 3.2 | 4.8 | 0.00 | 0.03 | 0.03 | 83 | 1012.3 |
| 20260509225635 | 15 | 91 | 3.2 | 4.8 | 0.00 | 0.03 | 0.03 | 83 | 1012.5 |
| 20260509225131 | 14 | 37 | 4.8 | 4.8 | 0.00 | 0.03 | 0.03 | 83 | 1012.4 |
| 20260509224626 | 14 | 84 | 0.0 | 3.2 | 0.00 | 0.03 | 0.03 | 84 | 1012.8 |
| 20260509224124 | 14 | 75 | 1.6 | 4.8 | 0.00 | 0.03 | 0.03 | 84 | 1012.6 |
| 20260509223621 | 15 | 50 | 1.6 | 3.2 | 0.00 | 0.03 | 0.03 | 84 | 1012.6 |
| 20260509223118 | 14 | 67 | 0.0 | 3.2 | 0.00 | 0.03 | 0.03 | 84 | 1012.8 |
| 20260509222614 | 15 | 59 | 1.6 | 3.2 | 0.00 | 0.03 | 0.03 | 84 | 1012.9 |
| 20260509222110 | 15 | 55 | 0.0 | 3.2 | 0.00 | 0.03 | 0.03 | 83 | 1012.8 |
| 20260509221606 | 15 | 37 | 1.6 | 3.2 | 0.00 | 0.03 | 0.03 | 83 | 1012.6 |
| 20260509221102 | 14 | 90 | 3.2 | 4.8 | 0.00 | 0.03 | 0.03 | 82 | 1012.8 |
| 20260509220558 | 15 | 82 | 0.0 | 1.6 | 0.00 | 0.03 | 0.03 | 83 | 1012.8 |
| 20260509220054 | 15 | 69 | 1.6 | 1.6 | 0.00 | 0.03 | 0.03 | 83 | 1013.0 |
| 20260509215550 | 15 | 71 | 1.6 | 3.2 | 0.00 | 0.03 | 0.03 | 82 | 1013.1 |
| 20260509215048 | 15 | 63 | 6.4 | 6.4 | 0.00 | 0.03 | 0.03 | 80 | 1013.3 |
| 20260509214544 | 15 | 47 | 3.2 | 6.4 | 0.00 | 0.03 | 0.03 | 78 | 1013.0 |
| 20260509214041 | 15 | 61 | 8.0 | 11.3 | 0.18 | 0.03 | 0.03 | 78 | 1013.0 |
| 20260509213537 | 15 | 60 | 3.2 | 9.7 | 0.18 | 0.03 | 0.03 | 77 | 1012.8 |
| 20260509213034 | 15 | 58 | 3.2 | 6.4 | 0.00 | 0.00 | 0.00 | 74 | 1013.4 |
| 20260509212531 | 15 | 16 | 1.6 | 3.2 | 0.00 | 0.00 | 0.00 | 72 | 1013.4 |
| 20260509212028 | 16 | 21 | 3.2 | 9.7 | 0.00 | 0.00 | 0.00 | 71 | 1013.5 |
| 20260509211524 | 16 | 25 | 6.4 | 9.7 | 0.00 | 0.00 | 0.00 | 71 | 1013.4 |
| 20260509211021 | 16 | 54 | 3.2 | 9.7 | 0.00 | 0.00 | 0.00 | 71 | 1013.2 |
| 20260509210518 | 16 | 26 | 4.8 | 9.7 | 0.00 | 0.00 | 0.00 | 69 | 1013.0 |
| 20260509210014 | 16 | 89 | 1.6 | 4.8 | 0.00 | 0.00 | 0.00 | 69 | 1012.9 |
| 20260509205508 | 16 | 60 | 3.2 | 3.2 | 0.00 | 0.00 | 0.00 | 67 | 1012.9 |
| 20260509205004 | 16 | 43 | 4.8 | 6.4 | 0.00 | 0.00 | 0.00 | 66 | 1012.9 |
| 20260509204500 | 17 | 48 | 4.8 | 4.8 | 0.00 | 0.00 | 0.00 | 66 | 1013.1 |
| 20260509203957 | 16 | 302 | 4.8 | 6.4 | 0.00 | 0.00 | 0.00 | 66 | 1012.8 |
| 20260509203453 | 16 | 2 | 6.4 | 6.4 | 0.00 | 0.00 | 0.00 | 67 | 1012.8 |
| 20260509202951 | 16 | 58 | 0.0 | 4.8 | 0.00 | 0.00 | 0.00 | 69 | 1012.6 |